TimeMST,TemperatureF,Dew PointF,Humidity,Sea Level PressureIn,VisibilityMPH,Wind Direction,Wind SpeedMPH,Gust SpeedMPH,PrecipitationIn,Events,Conditions,WindDirDegrees,DateUTC
12:55 AM,32.0,15.8,51,30.17,25.0,SSW,9.2,-,N/A,,Partly Cloudy,200,2013-01-09 07:55:00
1:55 AM,30.2,15.8,55,30.19,25.0,SSW,8.1,-,N/A,,Partly Cloudy,200,2013-01-09 08:55:00
2:55 AM,30.2,15.8,55,30.20,25.0,South,8.1,-,N/A,,Partly Cloudy,180,2013-01-09 09:55:00
3:55 AM,32.0,15.8,51,30.21,25.0,SSW,8.1,-,N/A,,Partly Cloudy,210,2013-01-09 10:55:00
4:55 AM,32.0,12.2,44,30.23,25.0,South,9.2,-,N/A,,Partly Cloudy,190,2013-01-09 11:55:00
5:55 AM,30.2,12.2,47,30.25,25.0,South,10.4,-,N/A,,Partly Cloudy,180,2013-01-09 12:55:00
6:55 AM,32.0,14.0,48,30.27,70.0,South,13.8,-,N/A,,Partly Cloudy,190,2013-01-09 13:55:00
7:55 AM,32.0,15.8,51,30.32,70.0,South,17.3,-,N/A,,Scattered Clouds,180,2013-01-09 14:55:00
8:55 AM,37.4,17.6,45,30.28,70.0,South,23.0,29.9,N/A,,Scattered Clouds,190,2013-01-09 15:55:00
9:55 AM,42.8,19.4,39,30.28,70.0,South,23.0,28.8,N/A,,Scattered Clouds,180,2013-01-09 16:55:00
10:55 AM,46.4,17.6,32,30.25,70.0,South,19.6,-,N/A,,Mostly Cloudy,190,2013-01-09 17:55:00
11:55 AM,51.8,15.8,24,30.17,70.0,South,16.1,-,N/A,,Scattered Clouds,170,2013-01-09 18:55:00
12:55 PM,55.4,15.8,21,30.12,70.0,South,9.2,-,N/A,,Scattered Clouds,180,2013-01-09 19:55:00
1:55 PM,59.0,14.0,17,30.07,70.0,SSW,9.2,-,N/A,,Partly Cloudy,200,2013-01-09 20:55:00
2:55 PM,55.4,14.0,20,30.08,70.0,South,17.3,-,N/A,,Partly Cloudy,180,2013-01-09 21:55:00
3:55 PM,53.6,17.6,24,30.07,70.0,South,18.4,-,N/A,,Partly Cloudy,180,2013-01-09 22:55:00
4:55 PM,46.4,17.6,32,30.07,25.0,South,18.4,-,N/A,,Partly Cloudy,180,2013-01-09 23:55:00
5:55 PM,42.8,15.8,34,30.08,25.0,SSW,15.0,-,N/A,,Partly Cloudy,210,2013-01-10 00:55:00
6:55 PM,39.2,15.8,39,30.10,25.0,South,15.0,-,N/A,,Partly Cloudy,190,2013-01-10 01:55:00
7:55 PM,39.2,15.8,39,30.09,25.0,South,10.4,26.5,N/A,,Partly Cloudy,190,2013-01-10 02:55:00
8:55 PM,41.0,14.0,33,30.02,25.0,South,18.4,26.5,N/A,,Partly Cloudy,190,2013-01-10 03:55:00
9:55 PM,39.2,15.8,39,29.99,25.0,South,23.0,29.9,N/A,,Partly Cloudy,180,2013-01-10 04:55:00
10:55 PM,39.2,15.8,39,29.95,25.0,South,24.2,-,N/A,,Partly Cloudy,180,2013-01-10 05:55:00
11:55 PM,41.0,15.8,36,29.90,25.0,South,27.6,34.5,N/A,,Clear,180,2013-01-10 06:55:00